Dewpoint
3 3 6 4 3 2 3 4 5 8 7 4 4 3 4 3 3 3 4 5 6 7 7 7 8 8 8 9 9 8 7 6 6 6 3 -1 -7 -10 -11 -9 -2 1 2
5 3 3 5 5 6 6 8 9 9 8 8 8 7 5 2 1 3 4 6 7 8 8 8 8 8 9 9 9 9 8 7 7 6 6 5 0 -3 3 5 4 3 3
5 2 4 7 9 9 10 9 9 9 9 8 5 5 6 6 4 5 6 7 8 8 9 9 8 9 9 9 9 9 9 9 8 7 7 6 5 4 5 5 5 4 4
5 6 7 8 10 10 10 10 10 9 8 8 6 6 5 6 6 6 6 7 8 9 10 9 8 8 8 8 9 9 9 9 9 9 8 7 7 6 5 5 5 4 4
6 6 8 9 10 11 11 11 11 9 8 7 6 6 6 7 7 8 8 8 9 10 10 10 9 8 8 8 8 8 9 10 9 9 9 8 7 7 6 6 4 3 3
7 7 9 10 11 11 11 10 8 8 8 7 8 7 7 7 7 7 8 9 10 10 11 11 10 9 8 8 8 6 7 9 10 9 9 9 8 8 7 6 6 5 4
12 11 9 9 9 9 9 8 8 8 8 8 9 9 8 8 8 8 9 10 11 11 10 10 10 10 9 8 8 8 7 7 8 8 8 9 9 8 8 8 7 5 4
12 12 12 11 10 10 10 10 10 9 9 10 10 10 10 9 8 9 10 11 11 11 10 10 9 10 9 8 8 8 8 6 6 6 6 7 8 8 8 7 7 6 5
12 12 13 12 12 10 8 9 10 10 10 11 11 11 11 11 10 10 10 11 11 11 11 10 9 9 8 8 8 8 8 7 7 6 6 6 7 7 7 8 7 7 6
13 13 12 12 11 12 9 10 10 9 10 10 11 11 11 11 11 11 10 10 11 11 10 10 9 9 9 8 8 7 7 7 6 6 5 5 5 5 6 7 8 7 7
13 12 12 12 12 12 12 12 11 10 10 9 9 10 9 9 9 9 10 10 10 10 9 8 9 8 8 8 7 7 5 5 4 3 4 5 3 2 1 4 7 8 7
11 11 11 10 10 11 11 10 9 9 9 8 8 8 9 9 7 8 9 10 10 10 9 8 8 9 8 7 6 6 6 5 3 3 4 3 5 5 4 4 6 8 7
8 8 8 9 8 8 8 9 9 8 7 7 6 7 6 6 7 6 8 9 9 10 9 8 8 8 8 7 6 6 4 3 4 4 5 7 5 3 5 6 8 8 6
8 8 9 8 8 8 8 9 8 9 8 8 8 5 4 6 6 8 7 9 10 10 10 9 7 8 8 7 6 6 4 3 4 4 4 4 4 2 3 6 6 6 6
6 5 5 5 6 6 5 4 5 4 4 4 7 7 7 6 9 10 10 9 9 10 9 9 8 8 8 7 6 6 5 4 3 4 3 2 3 2 2 2 3 3 4
5 5 6 7 7 6 5 6 7 5 1 -1 -2 -1 1 3 7 9 8 8 8 9 9 8 8 8 7 6 6 5 5 4 3 3 3 2 2 1 2 2 2 2 1
6 7 8 8 8 7 4 0 -2 -2 -2 -2 -2 -2 -1 5 7 8 8 9 8 8 9 8 8 8 7 6 5 4 3 2 3 2 2 2 2 2 2 2 2 1 1
1 -1 1 -0 -1 -2 -1 -1 -1 -1 -0 -0 0 0 1 4 6 7 7 8 8 8 7 8 8 7 6 5 4 3 2 2 2 2 1 1 2 2 1 1 1 1 0
1 -1 -1 -1 0 0 0 0 0 0 0 1 2 2 4 5 7 6 6 8 7 8 8 7 6 6 5 4 3 2 1 1 1 1 1 1 1 1 0 0 -0 -1 -1
0 -1 -1 -0 -1 -1 -1 -1 -1 -1 -0 -0 1 5 6 6 7 7 7 7 7 7 6 6 4 3 3 3 2 1 1 1 1 0 0 -0 -1 -1 -1 -2 -4 -10 -18
-0 -0 -0 -0 0 0 0 0 -0 -0 -0 1 0 2 4 5 5 6 6 6 6 5 5 4 2 2 2 2 1 1 1 1 -0 -1 -2 -4 -7 -12 -16 -22 -26 -27 -27
-0 0 0 0 0 0 0 0 -0 -0 0 0 1 2 3 4 4 4 4 4 4 5 2 1 2 2 2 1 1 1 1 -0 -2 -4 -6 -15 -21 -24 -26 -26 -26 -22 -20
0 0 1 1 0 0 0 0 -0 -1 0 1 1 2 2 3 3 3 3 3 3 2 1 1 1 1 1 1 1 -0 -1 -2 -4 -11 -20 -22 -25 -24 -22 -20 -18 -17 -16
1 1 1 1 1 0 0 0 -0 -1 0 1 1 1 2 2 2 2 2 1 2 2 1 1 0 -0 -1 -2 -3 -4 -5 -8 -12 -20 -24 -24 -22 -18 -17 -16 -16 -16 -15
1 1 1 1 1 0 0 0 -1 -1 1 1 0 0 1 1 1 1 1 1 1 0 0 -0 -0 -1 -4 -11 -13 -16 -19 -22 -23 -25 -25 -21 -17 -16 -16 -15 -15 -15 -15
1 1 1 1 0 0 0 -0 -1 -1 0 0 0 0 0 0 0 1 0 -1 -1 -2 -5 -12 -16 -22 -24 -25 -24 -25 -25 -27 -27 -27 -19 -16 -16 -16 -15 -16 -15 -14 -14
Wind_Speed
15 16 12 11 10 10 10 10 10 8 6 7 6 5 5 5 6 4 3 2 3 4 5 5 6 6 7 6 7 7 7 6 6 6 6 6 5 6 8 8 8 9 10
12 13 12 11 10 10 10 10 7 7 5 5 6 6 6 8 8 6 4 3 3 3 5 6 7 7 7 6 6 6 6 4 4 4 5 5 5 6 7 8 8 9 9
11 13 12 12 9 9 9 10 9 7 7 8 8 8 8 7 8 6 5 5 4 4 4 5 7 7 9 10 8 7 6 5 4 3 3 4 4 4 5 5 6 7 7
14 14 14 12 10 10 10 10 9 9 10 11 10 10 10 9 8 8 8 7 6 6 6 6 6 7 9 9 9 10 11 10 8 5 3 2 1 1 1 3 4 4 5
17 15 14 13 13 13 13 13 13 14 14 14 13 12 11 10 9 10 10 10 9 9 8 7 6 8 10 9 10 10 11 13 12 9 8 4 3 3 3 2 4 4 5
19 18 17 17 17 17 17 18 17 17 15 13 12 12 12 12 12 12 12 12 11 11 11 10 10 10 11 11 10 10 11 12 12 11 11 12 9 7 4 7 3 2 5
13 15 17 20 22 22 19 17 16 15 15 13 13 14 14 14 15 14 14 12 13 13 13 13 13 13 13 12 12 12 11 11 11 11 14 14 13 10 9 10 7 4 3
17 15 14 15 19 18 15 14 14 14 14 14 14 13 11 11 12 14 15 14 14 16 16 17 16 15 15 13 15 13 11 11 14 14 16 16 14 17 14 12 13 10 7
21 21 18 13 15 15 10 13 14 14 14 14 15 13 6 3 6 9 13 17 16 17 19 17 16 16 15 17 15 13 12 14 15 15 16 17 17 16 18 20 16 14 11
24 23 23 21 20 20 21 22 17 19 19 17 15 17 17 19 11 8 12 15 17 18 16 17 17 17 17 15 13 14 14 14 15 15 15 16 17 18 17 20 22 15 16
22 23 24 24 21 22 21 20 21 20 17 16 14 14 12 19 17 16 22 19 19 18 18 21 19 20 15 15 15 15 15 14 14 15 14 15 17 20 20 18 23 22 21
17 17 19 16 17 13 12 11 12 13 15 14 16 17 18 22 22 20 27 25 24 22 23 22 23 21 17 15 14 15 16 15 13 11 10 9 7 9 10 16 16 24 24
16 16 19 23 26 27 25 17 16 17 18 18 14 20 21 27 27 25 27 26 26 25 23 22 23 20 16 16 16 16 14 12 10 8 8 9 6 5 3 3 9 24 22
15 20 22 22 20 20 25 25 28 32 34 35 27 22 25 30 30 29 28 25 25 23 25 22 22 20 18 17 18 16 12 10 8 12 14 14 9 6 8 4 9 14 11
19 19 20 17 16 18 17 13 17 22 25 29 30 32 33 35 33 29 27 26 25 24 25 27 25 22 20 17 17 17 13 11 12 14 14 12 10 9 10 13 12 13 15
21 21 21 22 23 23 24 25 28 29 29 29 29 30 31 32 31 29 26 28 29 28 26 22 25 20 20 17 18 16 17 16 15 15 14 12 12 11 11 12 14 15 16
19 23 24 23 23 24 25 25 25 24 23 23 23 23 24 27 26 26 27 25 25 27 24 22 22 19 20 19 18 18 18 12 12 13 14 13 12 13 14 14 15 15 17
20 17 18 19 19 20 21 22 22 23 23 23 23 23 23 22 22 20 21 26 22 23 26 24 23 22 22 19 17 17 16 11 12 12 12 12 13 13 13 13 13 13 12
17 16 17 17 17 17 19 20 21 22 23 22 23 22 21 19 18 19 20 21 21 22 21 20 22 22 21 19 19 17 14 13 13 13 12 9 10 11 12 13 12 12 12
17 18 18 17 16 16 17 18 19 20 22 21 21 20 17 18 19 19 20 21 23 22 20 22 24 21 19 20 18 16 15 15 13 11 11 11 11 12 12 13 13 13 12
15 15 14 13 14 14 15 16 18 20 20 21 20 20 20 20 22 22 21 21 21 23 24 23 21 19 20 20 20 17 16 14 14 13 12 12 12 12 12 11 11 10 9
13 12 12 14 15 16 16 18 19 22 23 23 21 21 21 22 23 25 25 24 24 23 21 19 19 19 18 18 17 17 16 17 15 13 13 12 12 11 10 9 8 7 6
12 13 14 16 17 18 19 19 20 21 23 24 23 23 21 21 22 23 23 23 23 22 20 16 15 13 15 15 15 16 16 15 15 11 10 10 11 9 9 8 7 7 7
14 14 16 17 19 20 22 23 22 21 21 21 21 21 19 19 20 20 18 15 15 16 16 15 14 13 14 14 15 13 12 14 16 13 13 11 11 10 9 9 9 9 9
14 15 16 18 19 20 22 22 20 19 19 18 18 17 16 16 15 15 14 14 14 15 15 15 15 15 15 14 15 14 15 14 16 13 12 10 11 11 10 10 11 10 10
15 17 18 19 21 21 20 20 19 16 16 15 15 15 14 14 14 14 13 12 12 13 12 12 13 13 13 14 14 13 13 13 14 11 12 11 10 9 7 11 11 9 8
Wind_Direction
181 179 174 181 188 194 192 186 184 184 185 193 202 213 226 246 258 270 289 323 347 5 11 8 3 3 7 7 11 16 20 29 43 50 53 56 65 69 69 64 55 44 41
193 199 197 190 187 185 193 194 199 204 215 214 225 229 230 247 256 256 267 283 301 329 344 346 347 344 345 344 335 346 355 4 21 38 50 57 69 78 77 66 53 46 40
203 203 203 202 194 192 193 201 213 233 241 250 243 233 234 235 241 251 260 267 278 304 316 325 336 320 319 319 318 315 315 318 331 345 9 28 54 79 78 62 60 54 41
214 210 213 214 215 217 223 230 240 247 248 249 251 253 250 243 243 255 261 264 268 287 302 309 319 319 325 316 304 291 291 290 295 287 291 316 13 44 84 53 37 52 50
222 225 230 231 229 235 245 250 258 254 253 256 251 246 247 250 258 262 265 267 272 280 284 288 308 303 314 304 303 296 288 274 270 274 291 289 243 288 269 356 2 14 20
226 229 233 239 243 245 248 247 248 251 252 247 247 246 250 255 256 257 263 263 267 267 273 271 283 296 302 295 286 297 292 286 276 269 269 265 261 259 278 283 267 326 345
232 227 234 237 239 240 247 249 251 249 250 249 253 258 262 263 264 266 262 258 259 264 263 262 272 285 293 290 295 289 286 290 294 284 284 270 259 265 248 259 246 251 314
239 237 241 241 235 235 238 244 250 250 247 248 256 266 280 283 273 256 251 246 248 247 255 262 270 281 295 289 294 284 273 277 291 285 282 275 270 260 268 259 251 246 252
234 242 238 232 233 224 245 261 255 253 251 248 252 251 278 277 308 278 275 244 246 254 258 249 274 278 289 282 287 284 282 281 275 276 281 276 273 268 258 253 242 245 250
226 235 245 240 232 231 233 229 244 249 248 251 267 276 263 270 280 295 277 267 246 237 236 256 270 281 285 283 281 281 286 281 280 274 276 276 275 270 268 245 240 238 230
227 232 233 239 245 247 252 242 245 246 256 257 259 260 264 276 275 281 273 259 245 244 255 274 276 283 274 275 276 284 284 279 281 279 273 275 278 272 266 248 231 228 220
232 231 236 239 246 243 237 247 249 257 261 272 280 278 265 267 274 278 267 268 266 263 269 274 274 270 272 278 283 283 287 278 280 273 274 279 268 287 285 236 229 220 210
217 232 244 264 267 263 261 242 254 261 257 260 269 267 276 269 272 272 268 266 263 262 257 270 273 273 263 280 280 288 287 279 268 249 204 201 231 288 8 142 165 166 167
245 247 246 250 254 247 252 261 270 261 253 264 263 262 271 271 270 264 265 265 263 259 259 254 265 271 261 272 280 283 278 271 248 241 235 243 255 255 247 199 172 182 216
253 248 253 258 264 264 255 253 267 266 265 269 264 260 259 261 262 264 260 261 262 257 259 259 247 258 263 273 275 277 271 264 248 243 248 249 223 222 237 242 250 247 256
252 257 267 267 265 265 267 272 274 274 273 272 271 270 265 262 261 257 263 264 261 260 259 255 260 252 271 276 273 270 274 270 254 244 244 245 229 227 228 233 238 245 252
264 268 269 269 269 268 268 268 268 270 273 275 275 273 269 262 256 256 256 257 257 263 253 258 256 256 268 267 269 272 287 260 239 239 239 240 237 236 240 240 245 250 256
261 263 262 262 262 262 265 268 272 272 274 275 274 272 268 263 260 260 249 252 256 253 260 260 248 256 257 257 258 264 274 245 234 234 240 248 239 239 245 247 252 259 260
256 259 261 266 268 271 275 277 278 277 275 274 273 272 264 257 257 264 260 255 257 249 248 258 264 256 249 245 248 252 252 238 235 235 239 236 235 242 246 251 252 257 259
260 269 273 276 278 281 283 285 286 285 281 279 275 271 268 255 254 252 249 258 259 252 260 268 260 252 239 244 241 240 237 236 235 235 237 239 239 245 248 248 253 256 259
261 264 268 273 278 284 288 292 292 289 285 279 275 267 263 258 259 257 257 256 261 267 267 261 250 245 236 234 238 233 229 228 230 231 238 240 243 245 247 249 248 249 250
260 266 272 277 282 285 290 295 296 292 285 277 274 267 261 258 259 259 259 257 256 256 256 252 248 243 242 234 226 226 225 227 230 238 238 242 242 238 240 238 235 225 226
264 270 276 280 283 285 287 291 294 294 282 274 267 262 260 257 256 258 259 257 254 252 247 239 242 244 243 240 230 224 226 229 233 238 225 228 231 226 220 218 220 226 238
267 272 277 282 285 288 289 291 293 300 289 272 266 265 263 261 258 260 261 253 246 239 236 233 230 234 229 228 232 226 226 224 232 230 229 230 221 217 215 222 232 237 246
273 278 282 285 286 287 287 287 288 304 298 276 265 265 267 266 262 250 248 242 241 240 235 235 235 233 230 225 226 226 227 224 226 222 219 219 219 225 232 236 243 248 250
275 279 283 285 287 287 286 288 287 303 296 277 264 261 260 256 249 246 240 238 236 240 238 238 235 231 228 227 224 222 218 220 223 219 216 217 223 219 238 243 241 242 236
Height
1570 1573 1575 1577 1579 1580 1581 1581 1583 1584 1584 1585 1586 1586 1586 1585 1586 1586 1586 1586 1586 1585 1585 1584 1583 1583 1582 1581 1580 1579 1579 1578 1577 1576 1575 1575 1574 1573 1573 1573 1572 1571 1571
1570 1572 1574 1576 1578 1579 1580 1582 1583 1583 1584 1584 1584 1585 1585 1585 1585 1586 1586 1586 1586 1585 1584 1584 1583 1582 1582 1581 1580 1580 1579 1578 1577 1577 1576 1576 1575 1574 1574 1574 1574 1573 1572
1569 1571 1573 1574 1576 1578 1580 1581 1581 1581 1582 1582 1583 1584 1584 1584 1585 1585 1585 1585 1585 1584 1584 1583 1583 1582 1581 1580 1580 1579 1579 1579 1578 1578 1577 1576 1576 1575 1574 1574 1573 1573 1572
1568 1570 1572 1573 1575 1576 1578 1579 1580 1580 1580 1581 1582 1582 1582 1583 1583 1583 1583 1583 1583 1583 1583 1582 1582 1582 1581 1579 1578 1577 1576 1577 1577 1576 1576 1575 1576 1575 1574 1575 1575 1574 1573
1567 1568 1570 1572 1573 1575 1576 1577 1578 1579 1579 1579 1580 1580 1580 1581 1581 1581 1582 1582 1581 1582 1581 1581 1581 1580 1580 1579 1578 1577 1576 1575 1575 1575 1576 1575 1573 1574 1573 1573 1575 1575 1574
1566 1568 1569 1571 1572 1573 1574 1575 1576 1577 1578 1578 1578 1577 1578 1578 1579 1578 1579 1580 1580 1579 1579 1579 1578 1578 1577 1577 1576 1576 1574 1573 1573 1573 1573 1573 1572 1572 1574 1573 1572 1573 1573
1565 1566 1568 1569 1571 1572 1573 1574 1575 1575 1576 1576 1576 1575 1575 1575 1576 1576 1577 1576 1578 1577 1577 1576 1576 1576 1575 1574 1573 1573 1572 1571 1571 1570 1571 1570 1569 1569 1569 1571 1571 1571 1571
1563 1564 1565 1567 1567 1569 1570 1572 1573 1573 1574 1574 1574 1574 1573 1572 1572 1573 1573 1573 1573 1574 1574 1573 1573 1573 1573 1571 1570 1569 1569 1569 1569 1568 1568 1568 1568 1567 1567 1568 1568 1569 1569
1559 1561 1562 1563 1564 1564 1565 1569 1570 1569 1571 1571 1572 1573 1572 1570 1570 1570 1570 1570 1570 1570 1570 1570 1570 1570 1570 1568 1567 1566 1565 1565 1565 1565 1565 1564 1564 1564 1563 1562 1563 1565 1566
1555 1558 1559 1560 1561 1560 1561 1561 1564 1564 1565 1566 1566 1567 1568 1569 1568 1568 1568 1568 1567 1567 1566 1567 1566 1567 1567 1565 1564 1562 1561 1561 1561 1561 1560 1560 1560 1559 1559 1559 1560 1561 1563
1550 1552 1552 1554 1556 1558 1557 1558 1561 1561 1563 1563 1562 1562 1563 1566 1565 1563 1565 1565 1564 1563 1564 1563 1562 1564 1563 1561 1561 1560 1559 1558 1557 1557 1556 1556 1555 1554 1553 1554 1555 1556 1558
1547 1549 1549 1550 1551 1547 1553 1555 1556 1558 1558 1558 1559 1559 1559 1561 1560 1559 1561 1560 1559 1559 1560 1560 1560 1559 1558 1558 1556 1556 1555 1554 1554 1554 1553 1552 1551 1550 1549 1548 1551 1555 1555
1544 1546 1546 1546 1544 1546 1547 1552 1551 1553 1554 1553 1553 1552 1553 1554 1555 1554 1555 1554 1552 1553 1554 1554 1554 1554 1554 1553 1552 1551 1550 1550 1550 1552 1551 1549 1548 1549 1548 1547 1548 1549 1551
1543 1543 1543 1543 1541 1544 1543 1544 1546 1547 1548 1548 1548 1547 1547 1549 1549 1548 1548 1549 1548 1547 1548 1548 1549 1549 1549 1549 1547 1547 1546 1547 1547 1549 1548 1547 1548 1548 1549 1550 1549 1550 1552
1539 1539 1540 1539 1540 1540 1540 1538 1541 1542 1542 1542 1542 1542 1541 1542 1541 1542 1542 1542 1543 1542 1541 1542 1543 1543 1544 1544 1544 1543 1543 1543 1544 1544 1545 1545 1545 1547 1548 1550 1550 1551 1551
1535 1535 1536 1536 1536 1537 1536 1536 1537 1537 1535 1535 1534 1534 1533 1533 1533 1534 1535 1537 1538 1536 1536 1536 1537 1538 1539 1540 1539 1538 1538 1538 1540 1541 1541 1542 1543 1543 1545 1546 1547 1548 1550
1531 1532 1532 1531 1531 1531 1531 1531 1530 1530 1528 1528 1527 1526 1526 1528 1527 1528 1528 1529 1530 1533 1531 1531 1533 1533 1533 1534 1535 1535 1534 1534 1535 1537 1537 1538 1539 1541 1542 1544 1546 1545 1546
1525 1526 1526 1527 1526 1527 1527 1527 1525 1525 1524 1523 1522 1521 1520 1521 1521 1521 1522 1524 1524 1526 1527 1527 1527 1529 1528 1529 1530 1530 1530 1531 1532 1533 1533 1535 1536 1537 1538 1540 1541 1542 1542
1521 1522 1523 1524 1524 1523 1522 1522 1522 1521 1519 1517 1518 1517 1516 1516 1516 1517 1518 1520 1520 1520 1520 1521 1521 1522 1524 1523 1525 1526 1527 1528 1529 1529 1530 1531 1532 1534 1535 1537 1538 1538 1538
1518 1518 1518 1519 1519 1518 1518 1516 1516 1515 1515 1511 1510 1513 1512 1512 1512 1512 1513 1514 1516 1516 1514 1515 1516 1517 1518 1521 1521 1522 1522 1525 1527 1527 1528 1528 1528 1531 1532 1533 1534 1534 1534
1515 1515 1515 1516 1515 1515 1514 1513 1512 1511 1508 1508 1505 1507 1509 1507 1508 1508 1508 1508 1510 1511 1510 1511 1511 1511 1513 1515 1517 1518 1520 1523 1524 1524 1526 1525 1526 1527 1528 1529 1529 1530 1530
1512 1512 1512 1512 1512 1511 1510 1508 1507 1506 1504 1503 1501 1502 1502 1502 1503 1503 1503 1503 1504 1505 1505 1506 1508 1507 1508 1509 1512 1514 1516 1519 1521 1522 1522 1523 1523 1523 1525 1525 1526 1527 1528
1509 1509 1509 1509 1509 1508 1506 1505 1503 1500 1499 1497 1496 1497 1496 1496 1498 1497 1497 1498 1498 1499 1500 1501 1503 1505 1506 1510 1510 1508 1512 1516 1518 1519 1520 1520 1521 1521 1522 1522 1523 1525 1525
1506 1506 1506 1506 1505 1503 1501 1500 1498 1495 1493 1491 1491 1491 1492 1492 1492 1492 1493 1493 1494 1495 1496 1498 1499 1501 1504 1504 1510 1508 1510 1511 1515 1514 1517 1518 1518 1519 1520 1521 1521 1522 1523
1503 1503 1502 1501 1500 1499 1497 1495 1493 1491 1488 1487 1487 1487 1487 1488 1487 1489 1490 1490 1491 1494 1493 1494 1495 1497 1500 1501 1505 1505 1507 1508 1511 1511 1514 1516 1516 1516 1517 1517 1518 1519 1520
1500 1499 1498 1497 1495 1494 1492 1490 1488 1485 1485 1484 1483 1483 1484 1485 1485 1486 1487 1489 1489 1492 1490 1491 1493 1494 1496 1498 1500 1502 1503 1505 1508 1509 1511 1514 1514 1514 1513 1513 1515 1516 1516